Flag for India Weather past 2 weeks in Ganganagar, Rajasthan, India

Now
57 °F

Fog.


Feels Like: 54 °F
Forecast: 58 / 76 °F
Wind: 13 mph from Northeast

Location: Lahore Airport

Current Time: Mar 5, 2015 at 4:49:57 AM

Latest Report: Mar 5, 2015 at 4:25 AM


Visibility: 2 mi

Pressure: 29.95 "Hg

Humidity: 88%

Dew point: 54 °F

Location of GanganagarLocation

Historic Weather in Ganganagar — Graph

°F

Ganganagar temperature yesterday

Maximum temperature yesterday: 73 °F (at 3:25 PM)
Minimum temperature yesterday: 50 °F (at 6:25 AM)
Average temperature yesterday: 62 °F

Past Weeks' High & Low Weather Summary

 TemperatureHumidityPressure
High77 °F (Feb 22, 2:25 PM)100% (Feb 21, 11:55 AM)30.09 "Hg (Feb 21, 11:55 AM)
Low48 °F (Feb 27, 6:55 AM)25% (Feb 26, 3:25 PM)29.68 "Hg (Feb 25, 5:25 AM)
Average63 °F70%29.93 "Hg
* Reported Feb 18 2:55 AM — Mar 5 2:55 AM, Ganganagar, Weather by CustomWeather, © 2015

Note: Actual official high and low records may vary slightly from our data, if they occured in-between our weather recording intervals... More about our weather records

Advertising

Ganganagar weather history for previous 24 hours

 ConditionsComfort  
Time TempWeatherWind HumidityBarometerVisibility
2:55 AM
Thu, Mar 5
59 °FRain. Mostly cloudy.12 mph77%30.01 "Hg2 mi
2:25 AM59 °FLight rain. Partly cloudy.16 mph77%30.04 "Hg2 mi
1:55 AM61 °FPartly cloudy.3 mph72%30.01 "Hg2 mi
1:25 AM61 °FPassing clouds.3 mph72%30.01 "Hg2 mi
12:55 AM61 °FPassing clouds.No wind72%30.01 "Hg2 mi
12:25 AM61 °FPassing clouds.5 mph72%30.01 "Hg2 mi
11:55 PM
Wed, Mar 4
63 °FPassing clouds.No wind68%30.01 "Hg2 mi
11:25 PM63 °FPassing clouds.No wind68%30.01 "Hg2 mi
10:55 PM63 °FPassing clouds.No wind64%30.01 "Hg2 mi
10:25 PM63 °FPassing clouds.No wind68%30.01 "Hg2 mi
9:55 PM64 °FPassing clouds.No wind60%30.01 "Hg2 mi
9:25 PM64 °FPassing clouds.No wind60%29.98 "Hg2 mi
8:55 PM64 °FPassing clouds.No wind64%29.98 "Hg2 mi
8:25 PM64 °FPassing clouds.No wind64%29.95 "Hg3 mi
7:55 PM66 °FPassing clouds.No wind60%29.95 "Hg3 mi
7:25 PM66 °FPassing clouds.5 mph52%29.95 "Hg3 mi
6:55 PM70 °FHaze.6 mph46%29.95 "Hg3 mi
6:25 PM70 °FScattered clouds.7 mph46%29.92 "Hg3 mi
5:55 PM72 °FScattered clouds.9 mph41%29.92 "Hg3 mi
5:25 PM72 °FBroken clouds.7 mph41%29.95 "Hg3 mi
4:55 PM72 °FBroken clouds.7 mph44%29.95 "Hg3 mi
4:25 PM72 °FBroken clouds.7 mph44%29.95 "Hg3 mi
3:55 PM73 °FScattered clouds.7 mph38%29.95 "Hg3 mi
3:25 PM73 °FScattered clouds.5 mph38%29.95 "Hg4 mi
2:55 PM72 °FScattered clouds.5 mph41%29.95 "Hg4 mi
2:25 PM72 °FPassing clouds.6 mph41%29.98 "Hg4 mi
1:55 PM70 °FClear.6 mph43%29.98 "Hg4 mi
1:25 PM70 °FClear.6 mph43%29.98 "Hg4 mi
12:55 PM68 °FClear.5 mph46%30.01 "Hg4 mi
12:25 PM66 °FClear.6 mph52%30.01 "Hg4 mi
11:55 AM61 °FHaze.8 mph63%30.01 "Hg3 mi
11:25 AM64 °FClear.7 mph56%30.01 "Hg3 mi
10:55 AM61 °FClear.8 mph63%30.01 "Hg2 mi
10:25 AM61 °FClear.5 mph63%30.01 "Hg2 mi
9:55 AM59 °FClear.6 mph72%30.01 "Hg1 mi
9:25 AM57 °FClear.5 mph77%30.01 "Hg1 mi
8:55 AM54 °FFog.5 mph82%29.98 "Hg1 mi
8:25 AM52 °FFog.No wind88%29.98 "Hg1 mi
7:55 AM50 °FFog.3 mph88%29.95 "Hg1 mi
7:25 AM50 °FFog.No wind88%29.95 "Hg1 mi
6:55 AM50 °FFog.No wind88%29.95 "Hg1 mi
6:25 AM50 °FFog.5 mph88%29.92 "Hg2 mi
5:25 AM52 °FPassing clouds.No wind88%29.92 "Hg2 mi
4:55 AM52 °FPassing clouds.No wind88%29.92 "Hg2 mi
4:25 AM52 °FPassing clouds.3 mph88%29.92 "Hg2 mi
Weather by CustomWeather, © 2015

See weather overviewHow to use our weather pages